When you browse on this site, cookies collect data to enhance your experience and personalize the content and advertising you see.
Visit our Privacy Policy to learn more. By continuing to use the site, you agree to this use of cookies and data.
  • In Hungary
  • List of Countries
  • For 7 days
  • Water Temperature
  • Weather Map
  • News
  • Weather Widgets
  • user-avatar
    Login

    Hourly Weather Sivickie

    Today, 15 December, Sunday

    Time Temperature Precipitation Wind Pressure Humidity
    00:00 -1°C° 0.2 mm 6 mps 738 mmHg 95%
    01:00 +1°C° 0.2 mm 6 mps 738 mmHg 94%
    02:00 0°C° 0 mm 5 mps 737 mmHg 93%
    03:00 0°C° 0.2 mm 5 mps 737 mmHg 94%
    04:00 +1°C° 0.2 mm 5 mps 736 mmHg 96%
    05:00 +1°C° 0.2 mm 4 mps 736 mmHg 97%
    06:00 +1°C° 0.6 mm 4 mps 736 mmHg 97%
    07:00 +1°C° 0.6 mm 4 mps 736 mmHg 96%
    08:00 +1°C° 0 mm 4 mps 736 mmHg 95%
    09:00 +1°C° 0.4 mm 4 mps 736 mmHg 96%
    10:00 +1°C° 0.4 mm 4 mps 736 mmHg 96%
    11:00 +1°C° 0.4 mm 4 mps 736 mmHg 96%
    12:00 +1°C° 0.2 mm 4 mps 736 mmHg 96%
    13:00 0°C° 0.2 mm 5 mps 737 mmHg 96%
    14:00 0°C° 0.2 mm 5 mps 737 mmHg 96%
    15:00 +1°C° 0.2 mm 5 mps 738 mmHg 93%
    16:00 +1°C° 0.2 mm 5 mps 738 mmHg 89%
    17:00 +1°C° 0.2 mm 5 mps 739 mmHg 86%
    18:00 0°C° 0 mm 5 mps 739 mmHg 87%
    19:00 0°C° 0 mm 4 mps 740 mmHg 88%
    20:00 0°C° 0 mm 4 mps 740 mmHg 89%
    21:00 -1°C° 0 mm 4 mps 740 mmHg 89%
    22:00 -1°C° 0 mm 4 mps 740 mmHg 90%
    23:00 -1°C° 0 mm 4 mps 740 mmHg 90%

    Tomorrow, 16 December, Monday

    Time Temperature Precipitation Wind Pressure Humidity
    00:00 0°C° 0.1 mm 5 mps 740 mmHg 92%
    01:00 0°C° 0.1 mm 5 mps 740 mmHg 93%
    02:00 0°C° 0.1 mm 5 mps 740 mmHg 95%
    03:00 +1°C° 0 mm 5 mps 740 mmHg 92%
    04:00 +1°C° 0 mm 5 mps 740 mmHg 88%
    05:00 +1°C° 0 mm 6 mps 740 mmHg 85%
    06:00 +1°C° 0 mm 6 mps 740 mmHg 84%
    07:00 +1°C° 0 mm 6 mps 740 mmHg 84%
    08:00 0°C° 0 mm 7 mps 740 mmHg 83%
    09:00 0°C° 0.1 mm 7 mps 741 mmHg 82%
    10:00 0°C° 0.1 mm 8 mps 741 mmHg 82%
    11:00 +1°C° 0.1 mm 9 mps 742 mmHg 81%
    12:00 +1°C° 0 mm 8 mps 742 mmHg 79%
    13:00 +1°C° 0 mm 8 mps 743 mmHg 76%
    14:00 +3°C° 0 mm 7 mps 743 mmHg 73%
    15:00 +2°C° 0 mm 6 mps 744 mmHg 76%
    16:00 +2°C° 0 mm 6 mps 745 mmHg 79%
    17:00 +1°C° 0 mm 5 mps 746 mmHg 82%
    18:00 +1°C° 0 mm 5 mps 746 mmHg 84%
    19:00 0°C° 0 mm 5 mps 746 mmHg 87%
    20:00 0°C° 0 mm 4 mps 747 mmHg 90%
    21:00 0°C° 0 mm 4 mps 747 mmHg 90%
    22:00 -1°C° 0 mm 4 mps 747 mmHg 91%
    23:00 -1°C° 0 mm 4 mps 747 mmHg 92%

    Day after tomorrow, 17 December, Tuesday

    Time Temperature Precipitation Wind Pressure Humidity
    00:00 -1°C° 0 mm 4 mps 747 mmHg 92%
    01:00 0°C° 0 mm 3 mps 747 mmHg 93%
    02:00 0°C° 0 mm 3 mps 747 mmHg 93%
    03:00 0°C° 0 mm 3 mps 747 mmHg 92%
    04:00 0°C° 0 mm 3 mps 747 mmHg 90%
    05:00 0°C° 0 mm 4 mps 746 mmHg 88%
    06:00 0°C° 0.1 mm 4 mps 746 mmHg 89%
    07:00 0°C° 0.1 mm 4 mps 746 mmHg 90%
    08:00 +1°C° 0.1 mm 4 mps 745 mmHg 90%
    09:00 +1°C° 0.5 mm 4 mps 745 mmHg 91%
    10:00 +1°C° 0.5 mm 4 mps 745 mmHg 92%
    11:00 +3°C° 0.5 mm 4 mps 745 mmHg 94%
    12:00 +3°C° 0.1 mm 4 mps 745 mmHg 93%
    13:00 +3°C° 0.1 mm 4 mps 745 mmHg 92%
    14:00 +4°C° 0.1 mm 3 mps 745 mmHg 91%
    15:00 +3°C° 0.1 mm 3 mps 745 mmHg 92%
    16:00 +3°C° 0.1 mm 3 mps 745 mmHg 93%
    17:00 +4°C° 0.1 mm 2 mps 745 mmHg 94%
    18:00 +4°C° 0 mm 2 mps 745 mmHg 95%
    19:00 +4°C° 0 mm 2 mps 745 mmHg 95%
    20:00 +4°C° 0 mm 2 mps 745 mmHg 96%
    21:00 +4°C° 0 mm 2 mps 746 mmHg 96%
    22:00 +4°C° 0 mm 2 mps 746 mmHg 96%
    23:00 +4°C° 0 mm 2 mps 746 mmHg 96%

    18 December, Wednesday

    Time Temperature Precipitation Wind Pressure Humidity
    00:00 +4°C° 0 mm 2 mps 746 mmHg 96%
    01:00 +4°C° 0 mm 2 mps 746 mmHg 96%
    02:00 +4°C° 0 mm 1 mps 746 mmHg 96%
    03:00 +4°C° 0 mm 1 mps 746 mmHg 96%
    04:00 +4°C° 0 mm 1 mps 746 mmHg 95%
    05:00 +4°C° 0 mm 1 mps 746 mmHg 95%
    06:00 +3°C° 0 mm 2 mps 746 mmHg 95%
    07:00 +2°C° 0 mm 2 mps 746 mmHg 96%
    08:00 +2°C° 0 mm 2 mps 746 mmHg 96%
    09:00 +3°C° 0 mm 2 mps 746 mmHg 94%
    10:00 +2°C° 0 mm 3 mps 747 mmHg 93%
    11:00 +3°C° 0 mm 3 mps 747 mmHg 92%
    12:00 +3°C° 0 mm 3 mps 746 mmHg 91%
    13:00 +4°C° 0 mm 2 mps 746 mmHg 90%
    14:00 +4°C° 0 mm 2 mps 746 mmHg 90%
    15:00 +4°C° 0 mm 2 mps 746 mmHg 91%
    16:00 +3°C° 0 mm 2 mps 746 mmHg 92%
    17:00 +2°C° 0 mm 3 mps 746 mmHg 93%
    18:00 +2°C° 0 mm 3 mps 746 mmHg 93%
    19:00 +2°C° 0 mm 3 mps 746 mmHg 93%
    20:00 +2°C° 0 mm 3 mps 746 mmHg 94%
    21:00 +2°C° 0 mm 3 mps 746 mmHg 94%
    22:00 +2°C° 0 mm 3 mps 745 mmHg 94%
    23:00 +2°C° 0 mm 3 mps 745 mmHg 94%

    19 December, Thursday

    Time Temperature Precipitation Wind Pressure Humidity
    00:00 +1°C° 0 mm 3 mps 745 mmHg 94%
    01:00 +1°C° 0 mm 3 mps 745 mmHg 95%
    02:00 +1°C° 0 mm 3 mps 744 mmHg 95%
    03:00 +2°C° 0 mm 3 mps 744 mmHg 96%
    04:00 +1°C° 0 mm 4 mps 744 mmHg 96%
    05:00 +3°C° 0 mm 4 mps 744 mmHg 97%
    06:00 +3°C° 0 mm 4 mps 744 mmHg 96%
    07:00 +3°C° 0 mm 4 mps 744 mmHg 95%
    08:00 +3°C° 0 mm 3 mps 744 mmHg 94%
    09:00 +3°C° 0 mm 4 mps 744 mmHg 92%
    10:00 +3°C° 0 mm 4 mps 744 mmHg 89%
    11:00 +3°C° 0 mm 4 mps 745 mmHg 86%
    12:00 +3°C° 0 mm 4 mps 744 mmHg 84%
    13:00 +3°C° 0 mm 4 mps 744 mmHg 81%
    14:00 +3°C° 0 mm 4 mps 744 mmHg 79%
    15:00 +1°C° 0 mm 4 mps 744 mmHg 82%
    16:00 +1°C° 0 mm 4 mps 745 mmHg 85%
    17:00 +1°C° 0 mm 3 mps 745 mmHg 88%
    18:00 +1°C° 0 mm 3 mps 745 mmHg 87%
    19:00 0°C° 0 mm 4 mps 745 mmHg 86%
    20:00 0°C° 0 mm 4 mps 745 mmHg 85%
    21:00 +1°C° 0 mm 3 mps 746 mmHg 83%
    22:00 +1°C° 0 mm 3 mps 746 mmHg 82%
    23:00 +1°C° 0 mm 3 mps 747 mmHg 80%

    20 December, Friday

    Time Temperature Precipitation Wind Pressure Humidity
    00:00 +1°C° 0 mm 2 mps 747 mmHg 83%
    01:00 -1°C° 0 mm 2 mps 747 mmHg 86%
    02:00 -2°C° 0 mm 2 mps 747 mmHg 89%
    03:00 -2°C° 0 mm 2 mps 747 mmHg 90%
    04:00 -2°C° 0 mm 2 mps 747 mmHg 91%
    05:00 0°C° 0 mm 1 mps 747 mmHg 91%
    06:00 0°C° 0 mm 1 mps 747 mmHg 91%
    07:00 0°C° 0 mm 1 mps 747 mmHg 91%
    08:00 0°C° 0 mm 1 mps 747 mmHg 92%
    09:00 0°C° 0 mm 1 mps 747 mmHg 88%
    10:00 -1°C° 0 mm 2 mps 748 mmHg 85%
    11:00 -1°C° 0 mm 2 mps 748 mmHg 82%
    12:00 -1°C° 0 mm 2 mps 747 mmHg 81%
    13:00 -1°C° 0 mm 2 mps 747 mmHg 79%
    14:00 +1°C° 0 mm 2 mps 746 mmHg 78%
    15:00 -1°C° 0 mm 3 mps 746 mmHg 79%
    16:00 -1°C° 0 mm 3 mps 746 mmHg 81%
    17:00 -1°C° 0 mm 3 mps 746 mmHg 83%
    18:00 -2°C° 0 mm 4 mps 746 mmHg 82%
    19:00 -2°C° 0 mm 4 mps 745 mmHg 80%
    20:00 -2°C° 0 mm 4 mps 745 mmHg 79%
    21:00 -2°C° 0 mm 4 mps 745 mmHg 79%
    22:00 -2°C° 0 mm 5 mps 745 mmHg 78%
    23:00 -2°C° 0 mm 5 mps 745 mmHg 78%
    Show more